Location: Chena
(64.8152°N, 147.9227°W)
Time: 22:09:35
(UTC+00:00)

Vanguard 2 - Pass Details

Date: 15 March 2021
Orbit: 552 x 2938 km, 32.9° (Epoch: 11 April)

Event Time Altitude Azimuth Distance (km) Brightness Sun altitude
Rises 13:20:47 0° 226° (SW) 4,966 - -17.7°
Exits shadow 13:27:25 - 198° (SSW) 4,657 11.0 -17.1°
Reaches altitude 10° 13:28:59 10° 191° (S) 4,711 11.1 -16.9°
Maximum altitude 13:30:31 10° 184° (S) 4,807 11.2 -16.8°
Drops below altitude 10° 13:32:07 10° 177° (S) 4,948 11.3 -16.7°
Sets 13:42:52 0° 145° (SE) 6,558 12.3 -15.7°
